Fairacres, NM

6:27 PM MDT on August 25, 2016 (GMT -0600)
Las Cruces International

Weather History for KLRU - December, 2012

Change the Weather History Date:

Monday, December 24, 2012

  Actual Average Record
Temperature  
Mean Temperature 44 °F -  
Max Temperature 56 °F 50 °F 64 °F (2005)
Min Temperature 32 °F 27 °F 15 °F (2004)
Degree Days  
Heating Degree Days 21    
Moisture  
Dew Point 24 °F    
Average Humidity 47    
Maximum Humidity 71    
Minimum Humidity 23    
Precipitation  
Precipitation 0.00 in - - ()
Sea Level Pressure  
Sea Level Pressure 29.92 in    
Wind  
Wind Speed 9 mph (WSW)    
Max Wind Speed 32 mph    
Max Gust Speed 45 mph    
Visibility 10 miles    
Events Rain    
Averages and records for this station are not official NWS values.
T = Trace of Precipitation, MM = Missing Value Source: NWS Daily Summary

Daily Weather History Graph

Daily Weather History Graph

Search for Another Location

Airport or City:

Trip Planner

Search our weather history database for the weather conditions in past years. The results will help you decide how hot, cold, wet, or windy it might be!

Date:

Astronomy

Dec. 24, 2012 Rise Set
Actual Time 7:06 AM MST 5:08 PM MST
Civil Twilight 6:39 AM MST 5:35 PM MST
Nautical Twilight 6:08 AM MST 6:06 PM MST
Astronomical Twilight 5:38 AM MST 6:36 PM MST
Moon 2:34 PM MST (12/24) 3:51 AM MST (12/24)
Length of Visible Light 10h 56m
Length of Day
10h 02m
Waxing Gibbous, 89% of the Moon is Illuminated
Dec 24
Waxing Gibbous
Dec 28
Full
Jan 4
Last Quarter
Jan 11
New
Jan 18
First Quarter

Hourly Weather History & Observations

Time (MST) Temp. Windchill Dew Point Humidity Pressure Visibility Wind Dir Wind Speed Gust Speed Precip Events Conditions
12:15 AM 38.7 °F 35.2 °F 20.5 °F 48% 30.07 in 10.0 mi WSW 4.6 mph - N/A   Clear
12:35 AM 36.3 °F 32.5 °F 20.3 °F 52% 30.06 in 10.0 mi WSW 4.6 mph - N/A   Clear
12:55 AM 36.1 °F 30.6 °F 20.3 °F 53% 30.05 in 10.0 mi WSW 6.9 mph - N/A   Clear
1:15 AM 35.6 °F 31.7 °F 20.3 °F 54% 30.04 in 10.0 mi West 4.6 mph - N/A   Clear
1:35 AM 35.6 °F 31.7 °F 20.8 °F 55% 30.03 in 10.0 mi WSW 4.6 mph - N/A   Clear
1:55 AM 33.8 °F 28.6 °F 20.5 °F 58% 30.03 in 10.0 mi West 5.8 mph - N/A   Clear
2:15 AM 33.8 °F - 20.7 °F 59% 30.03 in 10.0 mi Calm Calm - N/A   Clear
2:35 AM 34.2 °F 31.2 °F 20.8 °F 58% 30.03 in 10.0 mi NW 3.5 mph - N/A   Clear
2:55 AM 34.7 °F - 21.0 °F 57% 30.02 in 10.0 mi Calm Calm - N/A   Clear
3:15 AM 32.5 °F - 20.8 °F 62% 30.02 in 10.0 mi Calm Calm - N/A   Clear
3:35 AM 34.7 °F - 21.2 °F 58% 30.01 in 10.0 mi Calm Calm - N/A   Clear
3:55 AM 34.3 °F - 21.0 °F 58% 30.01 in 10.0 mi Calm Calm - N/A   Clear
4:15 AM 35.1 °F - 21.0 °F 57% 30.00 in 10.0 mi Calm Calm - N/A   Clear
4:35 AM 39.6 °F 36.3 °F 21.7 °F 49% 29.99 in 10.0 mi ESE 4.6 mph - N/A   Clear
4:55 AM 38.7 °F 36.3 °F 22.1 °F 51% 29.99 in 10.0 mi South 3.5 mph - N/A   Clear
5:15 AM 39.2 °F 37.0 °F 22.5 °F 51% 29.99 in 10.0 mi South 3.5 mph - N/A   Clear
5:35 AM 38.5 °F 36.1 °F 23.0 °F 54% 29.99 in 10.0 mi South 3.5 mph - N/A   Clear
5:55 AM 37.9 °F 34.4 °F 23.0 °F 55% 30.00 in 10.0 mi SW 4.6 mph - N/A   Clear
6:15 AM 36.0 °F 33.3 °F 22.5 °F 58% 29.99 in 10.0 mi South 3.5 mph - N/A   Clear
6:35 AM 35.4 °F - 22.3 °F 59% 29.99 in 10.0 mi Calm Calm - N/A   Clear
6:55 AM 33.1 °F - 21.9 °F 64% 30.00 in 10.0 mi Calm Calm - N/A   Clear
7:15 AM 32.4 °F - 22.1 °F 66% 30.00 in 10.0 mi Calm Calm - N/A   Clear
7:35 AM 34.9 °F 32.0 °F 22.6 °F 61% 30.00 in 10.0 mi SW 3.5 mph - N/A   Clear
7:55 AM 35.8 °F 33.0 °F 23.0 °F 60% 30.00 in 10.0 mi SW 3.5 mph - N/A   Clear
8:15 AM 37.8 °F 34.2 °F 23.9 °F 57% 30.00 in 10.0 mi WSW 4.6 mph - N/A   Clear
8:35 AM 40.8 °F 38.8 °F 24.4 °F 52% 30.00 in 10.0 mi West 3.5 mph - N/A   Clear
8:55 AM 43.7 °F 41.1 °F 24.8 °F 47% 30.01 in 10.0 mi West 4.6 mph - N/A   Clear
9:15 AM 45.5 °F 42.5 °F 26.6 °F 48% 30.01 in 10.0 mi WSW 5.8 mph - N/A   Clear
9:35 AM 46.6 °F - 27.5 °F 47% 30.01 in 10.0 mi WSW 8.1 mph - N/A   Clear
9:55 AM 46.6 °F - 27.3 °F 47% 30.01 in 10.0 mi West 8.1 mph - N/A   Clear
10:15 AM 47.1 °F - 27.1 °F 46% 30.00 in 10.0 mi WSW 4.6 mph - N/A   Clear
10:35 AM 45.1 °F - 25.3 °F 46% 30.00 in 10.0 mi Calm Calm - N/A   Clear
10:55 AM 49.5 °F - 27.0 °F 42% 29.99 in 10.0 mi WSW 6.9 mph - N/A   Clear
11:15 AM 52.3 °F - 25.3 °F 35% 29.99 in 10.0 mi WSW 10.4 mph - N/A   Clear
11:35 AM 53.6 °F - 22.6 °F 30% 29.97 in 10.0 mi West 12.7 mph - N/A   Clear
11:55 AM 53.1 °F - 23.5 °F 32% 29.96 in 10.0 mi West 11.5 mph - N/A   Clear
12:15 PM 54.1 °F - 22.5 °F 29% 29.95 in 10.0 mi WSW 16.1 mph - N/A   Clear
12:35 PM 53.8 °F - 22.1 °F 29% 29.92 in 10.0 mi WSW 15.0 mph 19.6 mph N/A   Clear
12:55 PM 54.9 °F - 22.3 °F 28% 29.91 in 10.0 mi WSW 10.4 mph - N/A   Clear
1:15 PM 55.2 °F - 20.7 °F 26% 29.90 in 10.0 mi WSW 20.7 mph 28.8 mph N/A   Clear
1:35 PM 55.6 °F - 20.5 °F 26% 29.88 in 10.0 mi WSW 17.3 mph 25.3 mph N/A   Clear
1:55 PM 56.3 °F - 19.0 °F 23% 29.87 in 10.0 mi WSW 23.0 mph 31.1 mph N/A   Clear
2:15 PM 56.7 °F - 18.5 °F 23% 29.86 in 10.0 mi West 25.3 mph 31.1 mph N/A   Clear
2:35 PM 55.4 °F - 18.9 °F 24% 29.85 in 10.0 mi WSW 27.6 mph 33.4 mph N/A   Clear
2:55 PM 55.4 °F - 19.6 °F 25% 29.84 in 10.0 mi WSW 20.7 mph - N/A   Clear
3:15 PM 56.3 °F - 21.0 °F 25% 29.84 in 10.0 mi SW 24.2 mph 29.9 mph N/A   Clear
3:35 PM 55.9 °F - 22.1 °F 27% 29.85 in 10.0 mi WSW 16.1 mph 32.2 mph N/A   Clear
3:55 PM 55.6 °F - 22.5 °F 28% 29.83 in 10.0 mi WSW 13.8 mph 21.9 mph N/A   Clear
4:15 PM 54.9 °F - 22.8 °F 29% 29.80 in 10.0 mi West 26.5 mph 36.8 mph N/A   Clear
4:35 PM 54.0 °F - 23.0 °F 30% 29.79 in 10.0 mi WSW 32.2 mph 38.0 mph N/A   Clear
4:55 PM 52.9 °F - 23.4 °F 32% 29.78 in 10.0 mi WSW 26.5 mph 33.4 mph N/A   Clear
5:15 PM 51.6 °F - 23.7 °F 34% 29.78 in 10.0 mi WSW 24.2 mph 29.9 mph N/A   Clear
5:35 PM 50.9 °F - 24.1 °F 35% 29.79 in 10.0 mi WSW 23.0 mph 29.9 mph N/A   Clear
5:55 PM 50.2 °F - 24.8 °F 37% 29.78 in 10.0 mi West 21.9 mph 27.6 mph N/A   Clear
6:15 PM 49.8 °F - 25.7 °F 39% 29.77 in 10.0 mi West 21.9 mph 26.5 mph N/A   Clear
6:35 PM 49.3 °F - 26.2 °F 41% 29.77 in 10.0 mi West 20.7 mph 25.3 mph N/A   Clear
6:55 PM 49.1 °F - 26.4 °F 41% 29.76 in 10.0 mi West 19.6 mph - N/A   Clear
7:15 PM 48.6 °F - 26.4 °F 42% 29.78 in 10.0 mi West 21.9 mph - N/A   Clear
7:35 PM 48.9 °F - 26.6 °F 42% 29.79 in 10.0 mi West 12.7 mph - N/A   Scattered Clouds
7:55 PM 47.1 °F - 26.4 °F 45% 29.78 in 10.0 mi WSW 9.2 mph - N/A   Mostly Cloudy
8:15 PM 46.9 °F - 26.6 °F 45% 29.78 in 10.0 mi West 10.4 mph - N/A   Mostly Cloudy
8:35 PM 48.7 °F - 27.0 °F 43% 29.79 in 10.0 mi West 13.8 mph - N/A   Overcast
8:55 PM 48.9 °F - 30.9 °F 50% 29.81 in 10.0 mi WNW 20.7 mph 33.4 mph N/A Rain Rain
9:15 PM 46.2 °F 36.8 °F 36.1 °F 68% 29.81 in 10.0 mi West 31.1 mph 44.9 mph N/A Rain Rain
9:35 PM 45.7 °F 36.7 °F 36.0 °F 69% 29.81 in 10.0 mi West 26.5 mph 34.5 mph N/A   Overcast
9:55 PM 45.7 °F 37.1 °F 34.3 °F 65% 29.81 in 10.0 mi West 24.2 mph 34.5 mph N/A   Overcast
10:15 PM 45.3 °F 37.8 °F 31.5 °F 58% 29.83 in 10.0 mi NW 18.4 mph 28.8 mph N/A   Mostly Cloudy
10:35 PM 41.0 °F 32.8 °F 30.0 °F 65% 29.84 in 10.0 mi NNW 16.1 mph 21.9 mph N/A   Mostly Cloudy
10:55 PM 39.7 °F 31.5 °F 28.8 °F 65% 29.84 in 10.0 mi NNW 15.0 mph 23.0 mph N/A   Clear
11:15 PM 39.2 °F 31.2 °F 29.1 °F 67% 29.84 in 10.0 mi NNW 13.8 mph - N/A   Clear
11:35 PM 38.5 °F 32.7 °F 29.1 °F 69% 29.86 in 10.0 mi NW 8.1 mph - N/A   Scattered Clouds
11:55 PM 37.4 °F 31.4 °F 28.8 °F 71% 29.85 in 10.0 mi WNW 8.1 mph - N/A   Clear